Regional Weather Roundup
Issued by NWS Upton, NY

Current Version | Previous Version | Text Only | Print | Product List | Glossary On
Versions: 1 2 3 4 5 6 7 8 9 10 11 12 13 14 15 16 17 18 19 20 21 22 23 24 25 26 27 28 29 30 31 32 33 34 35 36 37 38 39 40 41 42 43 44 45 46 47 48 49 50
000 ASUS41 KOKX 040205 RWROKX REGIONAL WEATHER ROUNDUP NATIONAL WEATHER SERVICE NEW YORK NY 900 PM EST TUE MAR 03 2015 NOTE: "FAIR" INDICATES FEW OR NO CLOUDS BELOW 12,000 FEET WITH NO SIGNIFICANT WEATHER AND/OR OBSTRUCTIONS TO VISIBILITY. NYZ071-072-176-178-NJZ106-104-040300- NEW YORK CITY METRO AREA CITY SKY/WX TMP DP RH WIND PRES REMARKS CENTRAL PARK LGT RAIN 34 30 85 MISG 29.99F FOG LAGUARDIA APRT RAIN 34 30 85 S9 29.97F FOG WCI 27 KENNEDY INTL RAIN 35 31 85 S12 30.01F FOG WCI 27 NEWARK/LIBERTY FRZ RAIN 33 31 92 S10 29.98F FOG WCI 25 BRNX BOT. GARD N/A 32 32 100 S8 29.99F WCI 25 TETERBORO FRZ RAIN 33 30 88 S12 29.97F WCI 24 $$ NYZ177-179-078>081-040300- LONG ISLAND NEW YORK CITY SKY/WX TMP DP RH WIND PRES REMARKS FARMINGDALE RAIN 34 32 92 S10 30.00F FOG WCI 26 ISLIP LGT RAIN 34 31 88 S10 29.99F FOG WCI 26 SHIRLEY RAIN 34 32 92 S10 30.01F FOG WCI 26 WESTHAMPTON RAIN 35 31 85 SW9 30.03F FOG WCI 28 MONTAUK POINT N/A 34 32 92 S6 30.04F WCI 29 $$ NYZ052-065-067-040300- HUDSON VALLEY CITY SKY/WX TMP DP RH WIND PRES REMARKS WHITE PLAINS FRZ RAIN 31 30 96 S8 29.95F VSB 1 WCI 23 NEWBURGH NOT AVBL MONTGOMERY MIX PCPN 27 25 92 SW7 29.91F FOG WCI 19 POUGHKEEPSIE LGT SNOW 27 23 85 CALM 29.94F FOG ALBANY SLEET 25 20 81 S15G29 29.82F WCI 13 $$ NJZ001-105-106-008-010-013-015-019>022-104-040300- NEW JERSEY CITY SKY/WX TMP DP RH WIND PRES REMARKS NEWARK/LIBERTY FRZ RAIN 33 31 92 S10 29.98F FOG WCI 25 TETERBORO FRZ RAIN 33 30 88 S12 29.97F WCI 24 CALDWELL FRZ RAIN 32 28 85 SW6 29.98F FOG WCI 26 MORRISTOWN LGT RAIN 30 28 93 S6 29.98F FOG WCI 24 SOMERVILLE MIX PCPN 32 29 88 S5 29.95F FOG WCI 27 SUSSEX FRZ RAIN 30 26 85 SW9 29.92F FOG WCI 22 ANDOVER N/A 30 27 88 S8 29.92F WCI 22 TRENTON FRZ RAIN 33 30 88 MISG 29.96F MILLVILLE LGT RAIN 33 31 92 VRB5 30.00F FOG WCI 29 ATLANTIC CITY FOG 34 32 92 S6 29.99F VSB 1/2 WCI 29 WRIGHTSTOWN LGT RAIN 33 33 99 S7 29.95F WCI 27 TOMS RIVER CLOUDY 34 30 86 CALM 29.99F BELMAR CLOUDY 32 27 80 CALM 29.97F $$ PAZ047>061-062-071-040300- EASTERN PENNSYLVANIA CITY SKY/WX TMP DP RH WIND PRES REMARKS PHILADELPHIA FRZ RAIN 33 30 88 S12 29.99F FOG WCI 24 ALLENTOWN FRZ RAIN 31 28 89 S5 29.94F FOG WCI 26 SCRANTON CLOUDY 28 21 75 S9G20 29.83F WCI 19 $$ CTZ002-004>006-009-010-012-RIZ004-006-007-MAZ004-011-015-040300- SOUTHERN NEW ENGLAND IN CT CITY SKY/WX TMP DP RH WIND PRES REMARKS BRADLEY INTL SLEET 25 21 85 S9 29.96F VSB 3/4 WCI 15 HARTFORD SNOW 25 23 92 S7 29.99F VSB 1/2 WCI 17 DANBURY FRZ RAIN 29 25 85 S7 29.95F FOG WCI 22 WTRBRY/OXFORD LGT SNOW 27 19 74 S9G16 29.97F VSB 1 WCI 17 BRIDGEPORT FRZ RAIN 29 29 100 CALM 30.01F FOG MERIDEN MIX PCPN 26 23 88 S7 30.00F FOG WCI 18 NEW HAVEN FRZ RAIN 30 28 92 SE5 30.01F FOG WCI 25 CHESTER LGT SNOW 28 28 100 S7 30.01F WCI 21 GROTON LGT SNOW 32 32 100 S15 30.02F FOG WCI 22 WILLIMANTIC LGT SNOW 24 21 88 CALM 30.01F VSB 3/4 IN RI CITY SKY/WX TMP DP RH WIND PRES REMARKS PROVIDENCE LGT SNOW 31 29 92 S13 30.02F VSB 1 WCI 21 BLOCK ISLAND CLOUDY 34 28 80 S14 30.01F WCI 24 WESTERLY LGT SNOW 33 31 92 S14 30.04F FOG WCI 23 IN MA CITY SKY/WX TMP DP RH WIND PRES REMARKS BOSTON LGT SNOW 26 24 92 S12 30.02F VSB 1 WCI 16 WORCESTER LGT SNOW 21 18 88 S9 29.92F FOG WCI 11 WESTFIELD MIX PCPN 23 20 88 S7 29.95F FOG WCI 15 PROVINCETOWN CLOUDY 27 25 93 S16 30.06F WCI 14 NANTUCKET LGT SNOW 32 28 85 S21G30 30.09F FOG WCI 20 $$ ANZ330-335-338-340-345-350-353-355-040300- COASTAL MARINE OBSERVATIONS STATION/POSITION TIME SKY/WX TEMP WIND PRES VSBY WAVE AIR SEA DIR/SP/G HT/PER (UTC) (F) (DEG/KT/KT) (MB) (MI) (FT/S) NY HARB ENTRANCE 0200 36 38 190/ 14/ 16 1015.4 2/ 4 4S FIRE IS 0200 32 N/A 2/ 4 20S FIRE ISLAND 0100 36 1018.6 2/ 4 23SW MTP 0200 N/A 3/ 4 HUDSON CANYON NOT AVBL EXECUTION ROCKS NOT AVBL WESTERN LI SOUND NOT AVBL CENTRAL LI SOUND NOT AVBL EASTERN LI SOUND NOT AVBL ROBBINS REEF 0200 32 160/ 9/ 11 1014.1 $$ >>>>>>>>>>>>>>>>>>>>>>>>>>>> KEY <<<<<<<<<<<<<<<<<<<<<<<<<<< > < > SKY/WX - SKY CONDITION/PRESENT WEATHER < > TMP - TEMPERATURE IN FAHRENHEIT < > DP - DEWPOINT IN FAHRENHEIT < > RH - RELATIVE HUMIDITY IN PERCENT < > WIND - DIRECTION AND SPEED IN MPH < > PRES - MEAN SEA LEVEL PRESSURE IN INCHES OF HG < > WCI - WIND CHILL INDEX < > VSB - VISIBILITY IN MILES < > HX - HEAT INDEX < > TC - TEMPERATURE IN CELSIUS < > VRB - VARIABLE WIND DIRECTION < > < >>>>>>>>>>>>>>>>>>>>>>>>>>>> KEY <<<<<<<<<<<<<<<<<<<<<<<<<<<

USA.gov is the U.S. government's official web portal to all federal, state and local government web resources and services.